AirNav   Air Wisconsin pilot careers
 
 752 users online  

0F3 Spirit Lake Municipal Airport
Spirit Lake, Iowa, USA

GOING TO SPIRIT LAKE?


FAA INFORMATION EFFECTIVE 24 MAY 2018

Location

FAA Identifier: 0F3
Lat/Long: 43-23-14.7150N / 095-08-22.0850W
43-23.245250N / 095-08.368083W
43.3874208 / -95.1394681
(estimated)
Elevation: 1434 ft. / 437.1 m (surveyed)
Variation: 05E (1985)
From city: 3 miles SW of SPIRIT LAKE, IA
Time zone: UTC -5 (UTC -6 during Standard Time)
Zip code: 51355

Airport Operations

Airport use: Open to the public
Activation date: 01/1960
Control tower: no
ARTCC: MINNEAPOLIS CENTER
FSS: FORT DODGE FLIGHT SERVICE STATION
NOTAMs facility: FOD (NOTAM-D service available)
Attendance: MAY-SEP IRREG
Wind indicator: lighted
Segmented circle: no
Lights: DUSK-DAWN. ACTVT REIL RY 16 - CTAF.

Airport Communications

CTAF/UNICOM: 122.7
WX ASOS at SPW (14 nm S): 126.625 (712-262-8885)
WX AWOS-3 at MJQ (17 nm NE): 118.1 (507-847-5810)
WX ASOS at EST (17 nm E): 121.425 (712-362-7250)

Nearby radio navigation aids

VOR radial/distance  VOR name  Freq  Var
SPWr006/13.8SPENCER VOR/DME110.0005E
OTGr121/24.8WORTHINGTON VOR/DME110.6008E
FRMr237/34.8FAIRMONT VOR/DME110.2007E

 
NDB name  Hdg/Dist  Freq  Var  ID
SNORE037/12.339405ESP ... .--.
PUFF276/17.734501EPUF .--. ..- ..-.
EMMETSBURG308/25.541004EEGQ . --. --.-
SIBLEY083/26.826905EISB .. ... -...

Airport Services

Parking: hangars and tiedowns
Bottled oxygen: NONE
Bulk oxygen: NONE

Runway Information

Runway 16/34

Dimensions: 3015 x 50 ft. / 919 x 15 m
Surface: asphalt, in fair condition
Runway edge lights: low intensity
RUNWAY 16  RUNWAY 34
Latitude: 43-23.487167N43-23.003333N
Longitude: 095-08.443833W095-08.292333W
Elevation: 1434.0 ft.1420.0 ft.
Traffic pattern: leftleft
Runway heading: 162 magnetic, 167 true342 magnetic, 347 true
Markings: basic, in good conditionbasic, in good condition
Runway end identifier lights: yes
Obstructions: 10 ft. gnd, 520 ft. from runway, 32:1 slope to clear
+30' TREES 100' RIGHT OF RWY CNTRLN EXTNDD 520' FROM AER.
41 ft. tree, 630 ft. from runway, 160 ft. right of centerline, 10:1 slope to clear

Airport Ownership and Management from official FAA records

Ownership: Publicly-owned
Owner: DICKINSON COUNTY ARPT AUTH
BOX 702
OKOBOJI, IA 51355
Phone 712-332-9412
ARPT AUTHORITY CHAIRMAN - BRUCE SMITH - 712-332-7323.
Manager: DICKINSON COUNTY ARPT AUTH
BOX 702
OKOBOJI, IA 51355
Phone 712-332-9412
BRUCE SMITH

Airport Operational Statistics

Aircraft based on the field: 19
Single engine airplanes: 18
Jet airplanes: 1
  • BASED ACFT 40 SEASONALLY MAY-SEP.
    
Aircraft operations: avg 80/week *
57% transient general aviation
43% local general aviation
* for 12-month period ending 16 October 2017

Additional Remarks

TALL WTR TANK AT 1635 FT MSL LCTD APRX 1830 FT ABM AND WEST OF RWY 16/34. EXER CTN WHILE IN ARPT TFC PAT.

Instrument Procedures

There are no published instrument procedures at 0F3.

Some nearby airports with instrument procedures:

4D8 - Fuller Airport (3 nm S)
KSPW - Spencer Municipal Airport (14 nm S)
KMJQ - Jackson Municipal Airport (17 nm NE)
KEST - Estherville Municipal Airport (17 nm E)
KOTG - Worthington Municipal Airport (25 nm NW)
 
Loc | Ops | Rwys | IFR | FBO | Links
Com | Nav | Svcs | Stats | Notes

AirNav Hotels Sweepstakes
 
Area around 0F3 (Spirit Lake Municipal Airport)
 
Road maps at: MapQuest Bing Google
 
Aerial photo
WARNING: Photo may not be current or correct
Aerial photo of 0F3 (Spirit Lake Municipal Airport)
Do you have a better or more recent aerial photo of Spirit Lake Municipal Airport that you would like to share? If so, please send us your photo.

 
Sectional chart

 
Airport distance calculator
Flying to Spirit Lake Municipal Airport? Find the distance to fly.

From to 0F3

Sunrise and sunset
Times for 24-May-2018
 Local
(UTC-5)
 Zulu
(UTC)
Morning civil twilight05:1510:15
Sunrise05:4910:49
Sunset20:4601:46
Evening civil twilight21:2002:20

Current date and time
Zulu (UTC)  25-May-2018 03:29:02
Local (UTC-5)  24-May-2018 22:29:02
 
METAR
KSPW 
14nm S 
250253Z AUTO 33003KT 10SM OVC070 24/17 A2990 RMK AO2 SLP117 T02440172 53004 $
KMJQ 
17nm NE 
250315Z AUTO 14011G16KT 10SM CLR 23/15 A2990 RMK AO2
KEST 
17nm E 
250252Z AUTO 18009KT 10SM CLR 23/18 A2989 RMK AO2 PK WND 14027/0155 LTG DSNT E AND SE SLP115 T02280178 50004
KOTG 
24nm NW 
250256Z AUTO 17008KT 10SM CLR 21/15 A2988 RMK AO2 TSE03RAE17 SLP111 P0000 60001 T02060150 58009
TAF
NOTAMs
Click for the latest NOTAMs
NOTAMs are issued by the DoD/FAA and will open in a separate window not controlled by AirNav.

 

 
 

Would you like to see your business listed on this page?

 If your business provides an interesting product or service to pilots, flight crews, aircraft, or users of the Spirit Lake Municipal Airport, you should consider listing it here.  To start the listing process, click on the button below
 
Add a business
 

Other Pages about Spirit Lake Municipal Airport

Page from the Iowa Airport Directory
 
Update a link
 
Copyright © AirNav, LLC. All rights reserved. Privacy Policy  Contact